Theta_e
311 311 311 312 311 310 310 311 310 309 309 309 309 309 309 309 309 311 312 310 311 308 307 315 316 315 316 319 315 315 319 325 326 326 328 324 325 323 323 324 327 336 340 345 356
312 312 312 312 312 312 311 311 310 310 309 309 309 309 309 308 311 311 310 309 309 309 313 316 317 316 321 324 321 319 320 322 323 324 325 323 321 322 323 325 329 334 347 351 354
312 312 312 311 311 312 313 312 310 310 310 310 309 308 308 309 311 309 308 306 305 307 312 313 316 317 324 325 328 327 325 321 319 321 326 328 322 322 323 325 326 327 342 351 353
311 311 311 311 311 311 312 312 310 310 309 309 310 309 308 310 310 313 307 316 308 308 312 313 315 317 325 327 328 329 329 321 318 318 321 322 323 322 323 324 323 323 322 347 353
310 310 310 310 310 311 311 311 311 310 309 309 309 309 309 313 311 309 307 319 314 313 313 315 314 319 326 328 330 330 329 329 326 324 327 324 324 323 322 321 322 322 321 324 347
310 310 310 309 310 310 311 311 310 309 309 308 309 308 311 313 308 315 319 318 313 313 312 314 314 319 324 328 330 328 329 330 327 328 326 323 320 320 322 321 321 322 322 323 324
310 310 310 310 309 309 310 310 310 309 309 308 309 309 311 313 309 311 320 320 312 311 312 313 314 319 319 323 326 322 325 325 324 324 322 322 319 318 319 321 322 322 322 322 323
310 310 310 309 309 309 310 310 309 309 309 309 310 310 315 313 312 311 317 318 313 310 310 312 312 316 315 316 317 322 318 315 315 318 321 319 323 323 321 321 321 322 322 322 322
309 309 309 309 309 309 309 309 310 309 309 309 312 311 317 313 316 312 315 316 313 309 310 311 313 315 317 315 316 315 315 315 315 315 315 320 320 319 320 320 320 321 322 322 322
309 309 309 309 309 309 309 310 311 310 310 311 311 312 315 317 316 314 313 311 310 310 311 311 313 315 317 316 318 317 314 314 315 317 316 316 317 319 320 320 321 322 322 322 322
309 308 308 308 308 308 309 310 315 314 312 316 316 317 318 318 316 314 311 309 310 311 311 312 313 314 316 318 317 317 316 317 317 317 317 318 318 319 320 320 321 321 322 323 324
308 308 308 308 308 308 309 311 314 313 319 316 315 315 315 316 317 314 309 311 312 312 312 312 313 314 315 318 317 317 317 317 317 317 319 318 318 319 320 320 321 322 323 326 327
308 308 307 307 308 308 310 310 311 312 318 319 317 315 316 315 318 315 311 313 312 313 313 313 314 315 316 317 318 318 318 318 318 318 318 318 319 320 319 321 321 324 326 327 328
308 308 308 307 308 310 310 311 311 312 322 321 320 316 315 318 318 314 314 314 312 312 314 314 316 318 318 318 318 319 318 318 318 318 318 319 318 321 320 320 321 326 327 328 329
307 308 307 306 310 311 313 313 312 313 323 320 319 317 320 320 317 316 315 316 315 313 316 317 317 318 318 318 318 318 317 317 318 320 320 320 319 321 320 320 323 326 327 328 329
306 308 306 309 308 312 311 311 313 322 330 320 319 321 323 319 316 317 317 317 318 317 316 317 317 317 318 317 317 318 318 320 320 320 322 320 320 320 321 320 327 326 326 326 327
306 306 306 309 316 312 311 312 322 329 324 321 320 321 322 320 317 317 317 318 319 319 317 318 318 318 318 318 318 319 320 321 321 321 320 321 321 320 326 326 326 326 325 325 325
305 307 311 309 312 313 313 319 330 321 325 324 319 321 322 320 317 317 318 318 319 318 318 318 319 319 319 320 320 320 321 319 321 321 321 321 320 326 326 325 325 326 326 326 326
306 313 314 312 312 313 318 326 325 328 326 327 319 322 321 320 319 317 317 317 319 319 320 319 321 321 321 320 320 321 322 322 322 322 322 320 326 326 326 326 325 324 323 323 323
309 314 320 315 312 314 319 323 323 323 325 325 326 321 322 321 321 318 318 316 318 319 321 320 323 321 321 322 322 323 321 322 322 325 326 321 323 323 329 328 325 323 323 322 322
312 321 319 314 314 319 322 321 322 324 324 327 327 323 322 321 321 321 319 320 319 319 319 321 323 325 323 322 322 323 322 322 325 325 327 326 324 325 327 327 326 324 322 322 322
313 323 317 313 321 322 324 323 320 323 324 324 325 325 324 323 323 323 323 322 321 320 319 322 323 326 324 322 321 323 324 324 328 326 325 325 328 326 326 327 326 324 321 321 321
315 319 317 317 324 326 322 321 321 323 323 325 324 324 324 325 326 324 323 320 320 322 323 323 323 327 325 323 321 323 323 323 325 329 330 333 328 324 325 325 324 324 322 320 319
315 324 322 322 322 323 321 318 320 320 321 321 321 323 323 325 324 325 324 321 320 322 320 321 326 326 326 324 325 325 323 323 325 332 327 325 324 324 323 321 320 320 318 318 318
317 321 317 324 323 323 321 321 320 321 320 318 319 322 326 326 325 326 324 321 319 316 319 324 327 323 320 318 318 319 319 319 320 321 320 318 317 317 316 316 317 318 317 318 318
314 315 316 317 319 320 320 318 321 321 318 319 321 320 321 324 324 326 324 324 323 320 321 322 324 321 320 317 316 317 316 315 315 316 316 316 316 315 316 318 318 319 318 317 317
309 309 312 317 319 320 322 321 320 321 317 318 320 321 321 320 320 321 321 322 322 323 323 322 322 321 320 318 317 315 315 315 315 315 315 315 316 318 318 319 319 318 318 318 317
Wind_Speed
15 15 14 13 14 14 13 11 10 9 9 8 8 10 10 10 12 12 19 16 20 8 17 13 18 19 14 13 5 1 6 11 13 11 7 5 5 0 5 7 2 2 4 6 14
17 16 14 13 12 14 14 13 10 10 8 8 8 8 10 10 14 24 19 23 21 19 11 21 18 20 16 19 8 6 8 9 3 7 6 2 6 8 7 4 4 5 4 8 14
17 17 15 14 13 12 13 14 12 10 9 8 7 6 7 5 9 11 14 32 29 17 20 17 23 21 23 16 22 19 15 7 9 13 18 14 6 5 10 9 4 5 3 6 11
18 17 17 15 14 12 13 13 13 11 9 7 6 7 6 5 5 5 6 10 35 27 22 21 19 24 24 18 17 14 21 10 10 16 18 13 6 12 11 15 4 5 5 4 10
17 18 18 17 14 12 12 11 13 12 10 7 5 7 4 8 14 10 14 4 28 28 29 24 23 24 23 21 18 19 15 7 8 15 19 22 21 19 17 15 12 10 5 7 8
17 17 18 18 16 13 12 11 12 13 11 6 6 8 10 14 1 9 8 15 27 32 30 28 20 25 20 17 23 17 14 8 7 16 20 26 19 18 17 11 14 11 9 8 8
16 17 18 19 17 15 13 10 13 13 11 7 8 9 12 18 3 6 3 16 28 34 24 27 17 23 14 18 21 11 14 9 13 15 13 25 27 24 20 17 16 14 10 8 9
20 18 17 18 19 16 14 13 15 14 10 7 8 6 8 5 7 7 6 12 24 27 24 21 10 19 11 9 17 19 15 16 19 16 18 16 25 21 18 14 15 14 10 8 8
22 22 18 17 17 16 14 15 12 7 7 9 7 7 8 3 8 12 9 14 24 18 22 12 11 15 11 15 14 16 14 20 13 23 21 22 25 23 12 12 13 10 11 9 8
20 20 19 16 15 14 13 7 4 10 9 8 4 5 9 2 9 14 10 23 20 19 16 16 10 14 13 15 17 17 18 17 18 20 24 19 23 18 11 11 11 12 10 6 6
21 20 19 15 13 14 10 2 4 4 10 9 5 7 6 5 16 12 19 23 19 20 16 19 16 18 22 19 12 14 18 12 14 11 21 20 20 17 11 10 9 9 4 3 5
24 21 19 17 15 13 8 5 6 5 8 23 15 15 13 5 11 15 28 14 19 21 17 14 20 20 20 18 13 11 14 16 13 12 13 17 15 16 9 11 6 2 2 2 4
27 23 19 19 15 11 18 15 4 4 6 8 17 12 9 12 16 20 23 11 20 17 17 18 17 17 13 16 18 14 14 12 8 8 11 7 14 14 12 8 7 5 3 4 6
28 24 21 17 8 4 7 8 21 5 5 12 11 9 11 12 13 22 24 16 13 18 18 16 5 16 18 18 17 16 12 9 10 8 11 13 10 14 15 12 8 4 4 5 7
32 25 22 11 8 5 1 6 13 7 6 15 11 9 19 21 21 22 22 13 16 19 13 12 13 19 18 16 12 8 7 11 11 11 10 11 8 10 9 11 12 3 6 8 8
33 29 21 9 14 7 5 12 12 5 4 9 10 15 19 15 20 24 21 16 11 15 18 11 11 13 12 11 13 4 9 6 6 8 11 16 11 12 14 12 8 5 7 7 7
40 36 23 10 1 16 10 8 5 6 5 9 15 21 21 18 15 23 22 19 12 16 16 9 14 8 7 12 11 13 12 7 8 9 9 7 7 7 9 6 4 8 8 8 8
43 22 6 16 12 16 15 6 7 6 2 2 12 20 20 16 18 21 21 19 19 17 14 13 13 14 11 12 11 16 15 7 9 8 7 8 7 6 7 8 8 8 7 6 6
32 4 6 16 17 13 9 5 4 2 5 3 15 19 16 17 10 15 18 19 14 13 8 14 8 4 7 6 8 12 11 4 6 1 7 5 7 6 7 8 8 7 6 5 4
20 6 6 12 18 13 7 10 3 5 5 4 9 19 18 20 12 14 15 15 14 12 4 8 10 7 8 8 5 9 10 8 9 8 12 7 7 6 15 13 11 9 5 3 2
8 4 5 14 16 6 9 8 5 9 6 6 9 9 9 19 16 16 16 5 10 14 9 10 5 9 9 9 12 8 10 8 6 4 6 8 1 8 9 13 12 7 2 2 5
6 3 7 24 6 7 9 4 4 4 7 5 7 14 11 9 9 8 11 5 4 8 15 3 5 10 6 5 4 5 8 8 7 9 7 9 9 5 3 9 6 5 1 6 6
6 3 4 11 7 8 4 3 3 5 7 5 5 5 14 16 8 6 7 3 4 6 10 7 4 6 5 5 4 7 7 8 4 4 12 9 3 4 6 6 8 7 3 6 5
4 2 3 7 7 5 4 5 4 13 13 9 3 8 3 11 7 11 10 3 3 4 6 3 6 11 4 3 7 8 9 9 11 7 10 13 12 10 9 8 9 12 13 8 5
2 2 2 2 7 7 11 2 13 7 8 5 4 12 19 8 9 11 12 13 6 5 3 3 7 5 2 4 2 4 8 10 13 13 9 10 8 7 9 12 12 10 9 7 5
5 4 6 3 9 5 7 3 4 10 4 9 11 6 5 9 5 14 15 13 8 7 6 1 4 5 6 3 5 8 11 13 15 14 13 14 15 13 5 5 5 1 2 4 4
6 4 3 4 4 5 8 10 13 10 1 3 13 12 13 10 11 11 6 7 7 10 7 6 6 6 7 2 5 11 15 17 16 12 9 12 6 4 6 5 5 5 4 5 7
Wind_Direction
336 334 336 335 330 328 327 320 322 324 318 302 277 270 266 268 268 247 239 218 215 209 203 204 211 219 226 216 145 272 245 220 205 215 212 162 241 295 310 268 277 41 358 59 143
337 332 327 324 325 324 324 324 318 324 320 308 285 262 257 250 254 249 238 235 229 202 209 199 200 200 216 209 184 181 244 228 301 313 267 135 280 323 295 255 158 168 93 121 156
339 333 327 320 318 316 316 325 320 320 316 307 297 280 263 272 279 263 247 241 225 203 222 215 204 200 213 206 210 206 233 260 288 294 286 272 270 297 293 248 72 52 86 165 173
337 335 327 321 318 315 313 318 319 313 311 299 300 274 264 261 251 104 356 287 213 204 210 214 206 202 211 195 183 217 231 245 281 296 309 269 288 277 281 286 305 319 346 190 195
333 333 333 324 318 314 310 311 310 312 304 289 264 242 220 232 250 275 313 277 184 189 199 206 205 201 206 198 184 225 202 232 309 286 288 285 280 278 278 277 280 284 278 226 207
329 330 331 326 322 316 308 308 305 303 298 269 227 215 241 248 282 319 284 172 179 184 199 201 204 205 213 204 194 199 203 215 313 287 289 286 279 274 263 254 259 245 256 229 215
328 330 327 323 318 318 315 310 302 297 287 245 214 206 249 249 256 327 43 189 185 188 190 198 205 197 221 205 196 154 198 202 226 271 269 293 275 266 258 261 261 236 234 243 229
328 328 326 322 318 318 318 312 302 287 268 213 194 212 260 243 257 261 186 167 187 194 198 190 229 199 208 178 192 213 231 208 212 209 261 263 272 270 241 246 237 232 221 215 227
329 325 323 321 318 317 318 321 317 261 208 169 171 224 262 227 227 188 170 166 168 186 193 173 214 204 194 188 181 200 214 225 196 192 216 222 251 265 236 231 241 231 224 225 240
329 326 321 321 318 313 317 343 69 102 140 154 251 234 247 169 149 158 157 155 159 160 169 194 200 203 213 201 201 189 216 195 212 185 203 220 245 252 218 235 225 228 240 250 271
332 329 320 319 316 308 307 231 192 177 219 209 194 267 87 115 137 154 151 160 162 170 179 193 203 207 201 208 215 198 207 191 209 175 195 219 216 235 217 220 213 212 216 298 336
334 326 322 316 308 290 254 237 267 356 264 220 241 241 267 264 147 144 158 155 175 178 171 178 212 202 203 210 210 205 210 198 191 183 219 200 226 237 207 217 229 187 170 34 342
330 324 324 318 307 272 234 225 215 332 255 167 206 235 221 199 162 159 182 160 179 177 187 191 199 206 209 205 211 204 214 182 201 190 223 249 238 220 227 211 165 127 82 47 11
327 319 322 322 291 229 241 233 231 258 262 152 191 210 193 194 170 165 186 169 181 189 190 205 184 186 201 198 209 209 209 247 221 206 232 197 249 200 212 205 185 139 63 42 30
328 316 317 301 284 231 149 152 154 189 204 141 144 148 156 196 134 174 194 175 182 181 195 181 175 197 200 204 203 232 189 214 226 222 245 188 246 172 186 203 162 111 69 51 44
327 318 312 288 224 210 157 147 168 224 183 160 146 169 168 196 176 161 188 223 192 176 218 145 201 191 196 202 203 166 183 170 211 221 224 225 213 206 182 219 130 97 75 74 71
328 322 293 222 237 181 168 169 198 247 165 155 172 169 180 169 158 169 184 192 183 189 191 161 176 159 186 174 175 199 193 189 208 207 237 119 209 273 104 123 137 123 107 91 81
329 327 286 192 189 160 181 207 227 219 215 18 175 178 187 174 165 174 183 192 208 206 179 190 173 184 176 199 181 199 202 235 227 214 199 143 239 126 115 130 130 120 112 101 74
335 317 210 200 179 171 195 231 255 93 169 287 176 181 189 181 164 182 190 195 182 205 193 197 140 143 210 192 244 167 223 327 284 284 281 225 115 131 160 159 157 133 107 79 66
324 279 192 168 170 179 227 240 284 62 92 312 222 188 180 180 183 189 186 196 179 197 243 199 156 182 152 179 170 269 167 195 218 258 250 234 244 279 177 176 165 157 125 85 40
289 269 119 157 157 194 227 243 290 121 184 208 233 184 191 177 188 190 188 161 189 186 227 163 224 157 185 207 193 175 208 232 301 288 251 264 207 36 176 180 183 159 127 1 336
297 242 133 150 193 208 230 330 314 175 157 243 253 230 187 176 172 155 166 125 166 184 196 166 225 168 176 50 329 315 292 212 222 237 252 283 284 66 100 159 185 195 284 0 339
302 284 174 215 228 207 119 322 327 264 198 238 210 111 167 177 164 155 134 99 140 178 172 172 199 182 184 187 181 229 205 256 287 316 256 248 241 106 131 173 203 242 282 318 327
279 247 207 211 261 235 110 271 273 248 239 211 163 117 223 160 168 157 147 116 125 110 31 168 193 220 252 58 144 202 214 221 222 220 243 238 253 162 187 233 266 279 297 304 279
238 353 27 291 222 175 145 294 208 228 245 233 169 208 167 153 151 157 150 132 129 147 113 187 201 221 80 117 166 237 211 206 223 227 242 257 249 263 288 293 290 292 291 273 235
343 352 336 273 293 188 135 214 316 208 231 204 182 163 160 157 183 159 160 166 163 172 149 162 161 193 189 176 223 242 234 237 238 243 253 262 269 274 286 282 285 321 269 249 251
352 310 274 295 283 220 182 178 205 250 90 325 142 128 99 83 77 82 73 86 138 167 153 165 159 192 220 189 252 253 240 236 237 233 252 247 277 359 284 281 296 311 292 291 300